Location: *
(12.5665°N, 8.3471°E)
Time: 20:57:05
(UTC+00:00)

CZ-2C R/B - Pass Details

Date: 23 September 2019
Orbit: 669 x 784 km, 98.1° (Epoch: 14 October)

Event Time Altitude Azimuth Distance (km) Brightness Sun altitude
Rises 03:06:28 0° 24° (NNE) 3,208 6.1 -32.3°
Reaches altitude 10° 03:08:53 10° 32° (NNE) 2,297 5.4 -31.7°
Maximum altitude 03:13:37 39° 101° (E) 1,142 3.7 -30.5°
Drops below altitude 10° 03:18:25 10° 169° (S) 2,331 5.0 -29.4°
Sets 03:20:52 0° 177° (S) 3,261 5.7 -28.8°
